Location: Unspecified
(49.2170°N, 0.0000°E)
Time: 09:01:15
(UTC+00:00)

Transit 4A - Pass Details

Date: 23 June 2019
Orbit: 862 x 982 km, 66.8° (Epoch: 16 July)

Event Time Altitude Azimuth Distance (km) Brightness Sun altitude
Rises 09:09:29 0° 234° (SW) 3,631 10.8 47.6°
Reaches altitude 10° 09:12:06 10° 240° (WSW) 2,702 10.2 48.0°
Maximum altitude 09:18:14 50° 315° (NW) 1,236 8.8 48.9°
Drops below altitude 10° 09:24:29 10° 30° (NNE) 2,747 10.5 49.8°
Sets 09:27:11 0° 36° (NE) 3,696 11.1 50.2°
